{"data":{"norad_id":51807,"epoch":"2026-09-19T11:34:04.586592Z","epoch_age_seconds":139615,"freshness":"FRESH","line1":"1 51807U 22017AR  26262.48199753  .00000288  00000+0  19672-4 0  9993","line2":"2 51807  53.1629 176.1317 0001217  94.6612 265.4530 15.34387090253548","mean_motion":15.3438709,"eccentricity":0.0001217,"inclination_deg":53.1629,"raan_deg":176.1317,"arg_perigee_deg":94.6612,"mean_anomaly_deg":265.453,"bstar":1.9672e-5,"rev_number":25354,"period_min":93.848547696005,"perigee_km":461.90907678976,"apogee_km":463.57414664385,"semimajor_km":6840.8786117168,"source":"CELESTRAK","updated_at":"2026-09-20T09:00:39.942560Z"}}